Flag for Colombia Weather past 2 weeks in Bucaramanga, Colombia

Now
68 °F

Partly sunny.


Feels Like: 68 °F
Forecast: 69 / 84 °F
Wind: 7 mph from South

Location: Bucaramanga / Palonegro

Current Time: Aug 1, 2014 at 7:33:07 AM

Latest Report: Aug 1, 2014 at 7:00 AM


Visibility: N/A

Pressure: 29.96 "Hg

Humidity: 94%

Dew point: 66 °F

Location of BucaramangaLocation

Historic Weather in Bucaramanga — Graph

°F

Bucaramanga temperature yesterday

Maximum temperature yesterday: 81 °F (at 12:00 PM)
Minimum temperature yesterday: 66 °F (at 1:00 AM)
Average temperature yesterday: 73 °F

Past Weeks' High & Low Weather Summary

 TemperatureHumidityPressure
High82 °F (Jul 18, 3:00 PM)100% (Jul 27, 6:00 AM)30.09 "Hg (Jul 27, 6:00 AM)
Low64 °F (Jul 27, 6:00 AM)51% (Jul 26, 10:00 AM)29.86 "Hg (Jul 24, 4:00 PM)
Average75 °F75%29.99 "Hg
* Reported Jul 17 6:00 AM — Aug 1 6:00 AM, Bucaramanga, Weather by CustomWeather, © 2014

Note: Actual official high and low records may vary slightly from our data, if they occured in-between our weather recording intervals... More about our weather records

Advertising

Bucaramanga weather history for previous 24 hours

 ConditionsComfort  
Time TempWeatherWind HumidityBarometerVisibility
6:00 AM
Aug 1
66 °FScattered clouds.7 mph94%29.95 "HgN/A
11:00 PM
Jul 31
70 °FPassing clouds.9 mph88%30.02 "HgN/A
10:00 PM70 °FPassing clouds.5 mph88%30.01 "HgN/A
9:00 PM72 °FPassing clouds.3 mph83%30.00 "HgN/A
8:00 PM72 °FPassing clouds.No wind83%29.98 "HgN/A
7:00 PM72 °FPassing clouds.2 mph83%29.96 "HgN/A
6:00 PM72 °FScattered showers. Broken clouds.5 mph73%29.95 "HgN/A
5:00 PM72 °FScattered showers. Scattered clouds.3 mph73%29.93 "HgN/A
4:00 PM77 °FScattered showers. Scattered clouds.12 mph74%29.91 "HgN/A
3:00 PM79 °FScattered showers. Scattered clouds.8 mph65%29.93 "HgN/A
2:00 PM79 °FScattered showers. Scattered clouds.9 mph65%29.95 "HgN/A
1:00 PM81 °FScattered clouds.5 mph58%29.97 "HgN/A
12:00 PM81 °FScattered clouds.5 mph62%30.00 "HgN/A
11:00 AM79 °FScattered clouds.6 mph65%30.02 "HgN/A
10:00 AM77 °FScattered clouds.7 mph69%30.04 "HgN/A
9:00 AM73 °FScattered clouds.9 mph74%30.06 "HgN/A
8:00 AM68 °FScattered clouds.6 mph88%30.05 "HgN/A
7:00 AM68 °FPartly sunny.9 mph88%30.04 "HgN/A
Weather by CustomWeather, © 2014

See weather overviewHow to use our weather pages